Location: Bogotá
(4.6533°N, 74.0837°W)
Time: 13:58:01
(UTC+00:00)

ISS - Pass Details

Date: 11 July 2025
Orbit: 413 x 417 km, 51.6° (Epoch: 13 July)

Event Time Altitude Azimuth Distance (km) Brightness Sun altitude
Rises 09:34:08 0° 330° (NNW) 2,340 0.0 -18.4°
Reaches altitude 10° 09:36:15 10° 335° (NNW) 1,480 -1.0 -17.9°
Maximum altitude 09:39:31 56° 54° (NE) 497 -3.1 -17.1°
Drops below altitude 10° 09:42:47 10° 133° (SE) 1,484 -0.7 -16.4°
Sets 09:44:54 0° 138° (SE) 2,348 0.3 -15.9°
